Orbital Elements at Epoch 2454885.5 (2009-Feb-23.0) TDB
Reference: JPL 26 (heliocentric ecliptic J2000)
Element | Value | Uncertainty (1-sigma) | Units |
e | .4996238828398967 | 1.015e-07 | |
a | 3.588229935495735 | 8.9799e-08 | au |
q | 1.795464562601004 | 3.8562e-07 | au |
i | 6.524194071899128 | 2.9673e-05 | deg |
node | 49.88919011587622 | 0.00011047 | deg |
peri | 90.1306833860792 | 0.00013012 | deg |
M | 279.1120181806811 | 3.8876e-05 | deg |
tp | 2455443.328017612513 (2010-Sep-03.82801761) | 0.00028575 | TDB |
period | 2482.669017371159 6.80 | 9.3196e-05 2.552e-07 | d yr |
n | .1450052332715682 | 5.4433e-09 | deg/d |
Q | 5.380995308390466 | 1.3466e-07 | au |
|
| | Orbit Determination Parameters
Additional Information
|